Location: Detroit
(42.3310°N, 83.0460°W)
Time: 06:37:32
(UTC-05:00)

Envisat - Visible Passes

Search period start: 06 December 2021 00:00
Search period end: 16 December 2021 00:00
Orbit: 764 x 766 km, 98.2° (Epoch: 05 December)

Date Brightness Start Highest point End Pass type
(mag) Time Alt. Az. Time Alt. Az. Time Alt. Az.
06 Dec 5.6 04:22:55 10° NE 04:26:14 17° E 04:29:32 10° SE visible
06 Dec 3.0 06:00:37 10° N 06:05:37 57° WNW 06:10:34 10° SSW visible
07 Dec 3.3 05:23:43 10° NNE 05:28:47 66° ESE 05:33:49 10° S visible
07 Dec 4.4 07:04:08 10° NNW 07:07:15 17° WNW 07:10:21 10° W visible
07 Dec 6.5 18:22:46 10° W 18:23:23 10° W 18:24:01 10° W visible
08 Dec 4.8 04:47:19 10° NE 04:51:46 30° E 04:56:11 10° SSE visible
08 Dec 3.6 06:26:14 10° N 06:30:45 33° WNW 06:35:16 10° SW visible
08 Dec 5.6 17:42:04 10° SSW 17:46:06 24° W 17:50:10 10° NW visible
09 Dec 5.9 04:12:05 10° ENE 04:14:33 13° E 04:17:00 10° ESE visible
09 Dec 2.8 05:49:00 10° N 05:54:05 72° WNW 05:59:07 10° SSW visible
10 Dec 3.7 05:12:14 10° NNE 05:17:11 52° E 05:22:08 10° S visible
10 Dec 4.2 06:52:09 10° NNW 06:55:49 20° WNW 06:59:29 10° WSW visible
10 Dec 6.1 18:09:12 10° WSW 18:11:41 14° W 18:14:09 10° WNW visible
11 Dec 5.1 04:36:04 10° NE 04:40:07 24° E 04:44:09 10° SSE visible
11 Dec 3.3 06:14:30 10° N 06:19:17 42° WNW 06:24:02 10° SW visible
11 Dec 5.2 17:30:02 10° SSW 17:34:27 30° W 17:38:55 10° NW visible
12 Dec 6.1 04:02:21 10° E 04:02:50 10° E 04:03:20 10° E visible
12 Dec 2.9 05:37:25 10° NNE 05:42:32 90° ESE 05:47:37 10° SSW visible
12 Dec 4.7 07:18:45 10° NW 07:20:47 12° WNW 07:22:48 10° W visible
13 Dec 4.2 05:00:48 10° NNE 05:05:35 40° E 05:10:21 10° SSE visible
13 Dec 3.9 06:40:16 10° NNW 06:44:23 25° WNW 06:48:28 10° WSW visible
13 Dec 5.9 17:56:40 10° SW 18:00:00 17° W 18:03:20 10° NW visible
14 Dec 5.5 04:24:56 10° NE 04:28:27 19° E 04:31:58 10° SE visible
14 Dec 3.0 06:02:50 10° N 06:07:46 53° WNW 06:12:41 10° SSW visible
15 Dec 3.2 05:25:53 10° NNE 05:30:58 71° ESE 05:36:02 10° S visible
15 Dec 4.5 07:06:29 10° NNW 07:09:23 16° WNW 07:12:18 10° W visible
